sat.trackr.live / text

‹ back to catalog

STARLINK-11393 [DTC]

NORAD 62016 · 2024-213J

PAYLOAD ACTIVE UNKNOWN

§ Identity

Operator
Country
US
Launch date
2024-11-18
Launch site
AFWTR
Launch vehicle
Mass (kg)
RCS (m²)

Purposes: comms

External: N2YO · Heavens-Above · Gunter

§ Orbital elements

Epoch: 2026-09-21T21:13:14.400480Z

Period
91.73 min
Inclination
53.1575°
Eccentricity
0.0001139
Mean motion
15.69827311 rev/d
Perigee alt
358.6 km
Apogee alt
360.2 km
Semi-major
6,737.5 km
B*
1.3808e-3
RAAN
153.8067°
Arg perigee
146.4465°
Mean anomaly
213.6626°
Rev number
10,573

§ Raw data

STARLINK-11393 [DTC]1 62016U 24213J   26264.88419445  .00171022  00000+0  13808-2 0  99942 62016  53.1575 153.8067 0001139 146.4465 213.6626 15.69827311105732

JSON: /api/v1/satellites/62016 · /tle

For live sub-satellite position, see the globe view (requires WebGL).

§ Visibility from observer

Set your observer location to see the next 7 days of passes ≥ 10°. The values pass through the URL so the page stays shareable.

No JS? Fill the form by hand. The geolocation button needs JavaScript.